Weather History for Greenville, AL

Change the Weather History Date:

Tuesday, December 18, 2012

  Actual Average Record
Temperature  
Mean Temperature 54 °F -  
Max Temperature 64 °F 57 °F 79 °F (1984)
Min Temperature 43 °F 33 °F 19 °F (1953)
Degree Days  
Heating Degree Days 12    
Growing Degree Days 4 (Base 50)    
Moisture  
Dew Point 43 °F    
Average Humidity 71    
Maximum Humidity 97    
Minimum Humidity 29    
Precipitation  
Precipitation 0.01 in - - ()
Sea Level Pressure  
Sea Level Pressure 29.96 in    
Wind  
Wind Speed 4 mph (WNW)    
Max Wind Speed 7 mph    
Max Gust Speed -    
Visibility 10 miles    
Events      
Averages and records for this station are not official NWS values.
T = Trace of Precipitation, MM = Missing Value Source: NWS Daily Summary

Daily Weather History Graph

Daily Weather History Graph

Search for Another Location

Airport:

Trip Planner

Search our weather history database for the weather conditions in past years. The results will help you decide how hot, cold, wet, or windy it might be!

Date:

Astronomy

Dec. 18, 2012 Rise Set
Actual Time 6:41 AM CST 4:45 PM CST
Civil Twilight 6:14 AM CST 5:12 PM CST
Nautical Twilight 5:43 AM CST 5:42 PM CST
Astronomical Twilight 5:13 AM CST 6:12 PM CST
Moon 10:39 AM CST (12/18) 10:49 PM CST (12/18)
Length of Visible Light 10h 58m
Length of Day
10h 04m
Waxing Crescent, 35% of the Moon is Illuminated
Dec 18
Waxing Crescent
Dec 19
First Quarter
Dec 28
Full
Jan 4
Last Quarter
Jan 11
New

Hourly Weather History & Observations

Time (CST) Temp. Windchill Dew Point Humidity Pressure Visibility Wind Dir Wind Speed Gust Speed Precip Events Conditions
12:12 AM 59.0 °F - 57.2 °F 94% 29.83 in 10.0 mi West 5.8 mph - N/A   Overcast
12:56 AM 57.9 °F - 55.9 °F 93% 29.84 in 10.0 mi West 5.8 mph - N/A   Mostly Cloudy
1:09 AM 57.2 °F - 55.4 °F 94% 29.85 in 10.0 mi West 4.6 mph - N/A   Scattered Clouds
1:56 AM 55.9 °F - 55.0 °F 97% 29.85 in 6.0 mi WSW 5.8 mph - 0.01 in   Clear
2:56 AM 55.0 °F - 51.1 °F 86% 29.87 in 10.0 mi WNW 5.8 mph - N/A   Clear
3:56 AM 53.1 °F - 48.9 °F 86% 29.89 in 10.0 mi WNW 6.9 mph - N/A   Clear
4:56 AM 51.1 °F - 46.0 °F 83% 29.91 in 10.0 mi NW 4.6 mph - N/A   Clear
5:56 AM 48.9 °F - 44.1 °F 83% 29.94 in 10.0 mi NW 4.6 mph - N/A   Clear
6:56 AM 46.9 °F - 43.0 °F 86% 29.96 in 10.0 mi NNW 4.6 mph - N/A   Clear
7:56 AM 48.9 °F - 43.0 °F 80% 29.98 in 10.0 mi NNW 4.6 mph - N/A   Clear
8:56 AM 53.1 °F - 42.1 °F 66% 30.00 in 10.0 mi North 4.6 mph - N/A   Clear
9:56 AM 55.9 °F - 39.9 °F 55% 30.02 in 10.0 mi NNE 6.9 mph - N/A   Clear
10:56 AM 57.9 °F - 39.9 °F 51% 30.01 in 10.0 mi Calm Calm - N/A   Clear
11:56 AM 62.1 °F - 37.9 °F 41% 29.99 in 10.0 mi ENE 5.8 mph - N/A   Clear
12:56 PM 64.0 °F - 33.1 °F 31% 29.98 in 10.0 mi NNW 4.6 mph - N/A   Clear
1:56 PM 64.0 °F - 30.9 °F 29% 29.96 in 10.0 mi Calm Calm - N/A   Clear
2:56 PM 64.9 °F - 33.1 °F 31% 29.97 in 10.0 mi Calm Calm - N/A   Clear
3:56 PM 64.0 °F - 34.0 °F 33% 29.98 in 10.0 mi SW 4.6 mph - N/A   Clear
4:56 PM 59.0 °F - 37.9 °F 46% 29.98 in 10.0 mi Calm Calm - N/A   Clear
5:56 PM 51.1 °F - 43.0 °F 74% 30.00 in 10.0 mi Calm Calm - N/A   Clear
6:56 PM 46.9 °F - 42.1 °F 83% 30.01 in 10.0 mi Calm Calm - N/A   Clear
7:56 PM 46.0 °F - 42.1 °F 86% 30.01 in 10.0 mi Calm Calm - N/A   Clear
8:56 PM 44.1 °F - 39.9 °F 85% 30.02 in 10.0 mi Calm Calm - N/A   Clear
9:56 PM 43.0 °F 41.3 °F 39.9 °F 89% 30.03 in 10.0 mi South 3.5 mph - N/A   Clear
10:56 PM 43.0 °F 41.3 °F 39.9 °F 89% 30.03 in 10.0 mi South 3.5 mph - N/A   Clear
11:56 PM 45.0 °F 42.6 °F 39.9 °F 82% 30.02 in 10.0 mi South 4.6 mph - N/A   Clear